Regional Weather Roundup
Issued by NWS Charleston, SC

Current Version | Previous Version | Graphics & Text | Print | Product List | Glossary On
Versions: 1 2 3 4 5 6 7 8 9 10 11 12 13 14 15 16 17 18 19 20 21 22 23 24 25 26 27 28 29 30 31 32 33 34 35 36 37 38 39 40 41 42 43 44 45 46 47 48 49 50
000
ASUS42 KCHS 101810
RWRCHS

REGIONAL WEATHER ROUNDUP
NATIONAL WEATHER SERVICE CHARLESTON SC
200 PM EDT THU JUL 10 2014

NOTE: "FAIR" INDICATES FEW OR NO CLOUDS BELOW 12,000 FEET WITH NO
SIGNIFICANT WEATHER AND/OR OBSTRUCTIONS TO VISIBILITY.

NOT ALL STATIONS ARE QUALITY CONTROLLED BY THE NATIONAL
WEATHER SERVICE. USE DATA WITH CAUTION...ESPECIALLY
DEWPOINT OBSERVATIONS.

SCZ027-030-031-034>040-042>050-101900-
...SOUTH CAROLINA...

CITY           SKY/WX    TMP DP  RH WIND       PRES   REMARKS
N CHARLESTON   MOSUNNY   93  71  48 S14G21    30.07F HX 100
6HR MIN TEMP:  79; 6HR MAX TEMP:  94;

WATERFRONT PRK   N/A     86 N/A N/A S15         N/A
FORT JOHNSON   NOT AVBL
MOUNT PLEASANT FAIR      90  75  62 S17       30.08F HX 100
JOHNS ISLAND   PTCLDY    88  72  58 S15       30.09F HX  94
PINOPOLIS        N/A     91  70  49 SW10      29.98F HX  97
MONCKS CORNER    N/A     91  73  55 SW10G18   30.06F HX 100
SUMMERVILLE    FAIR      91  70  49 SW6       30.08F HX  97
BEAUFORT MCAS  PTSUNNY   92  72  51 VRB7G17   30.07F HX  99
6HR MIN TEMP:  78; 6HR MAX TEMP:  93;

BEAUFORT ARPT  FAIR      90  75  62 S8        30.08F HX 100
HILTON HEAD IS MOSUNNY   90  75  62 S9        30.09F HX 100
GEORGETOWN     NOT AVBL
WALTERBORO     PTCLDY    93  63  36 S10G16    30.08F HX  94
ORANGEBURG     MOSUNNY   89  69  51 SW6       30.07F HX  93
6HR MIN TEMP:  73; 6HR MAX TEMP:  89;

BARNWELL       MOCLDY    90  68  48 SW7       30.08F HX  93
AIKEN          FAIR      88  70  55 SW7       30.11F HX  92
MANNING        FAIR      91  72  52 S7        30.06F HX  98
KINGSTREE      NOT AVBL
COLUMBIA       PTSUNNY   88  68  51 W3        30.06F HX  91
6HR MIN TEMP:  76; 6HR MAX TEMP:  90;

SUMTER         PTSUNNY   91  70  49 S12       30.04F HX  96
6HR MIN TEMP:  78; 6HR MAX TEMP:  91;

FLORENCE       MOSUNNY   93  70  46 W14       30.04F HX  99
6HR MIN TEMP:  78; 6HR MAX TEMP:  94;

MYRTLE BEACH   MOSUNNY   88  75  66 S18       30.05F HX  97
N MYRTLE BEACH MOSUNNY   87  75  67 S20       30.06F HX  96
6HR MIN TEMP:  74; 6HR MAX TEMP:  87; 6HR PCP:  0.30;


$$

GAZ063-065-086>088-099>101-113>116-118-119-134-136>141-150-101900-
...GEORGIA...

CITY           SKY/WX    TMP DP  RH WIND       PRES   REMARKS
SAVANNAH ARPT  PTSUNNY   91  70  49 SW8       30.07F HX  96
6HR MIN TEMP:  76; 6HR MAX TEMP:  92;

HUNTER AAF     PTSUNNY   90  72  56 S8        30.06F HX  97
6HR MIN TEMP:  77; 6HR MAX TEMP:  91;

FORT STEWART   PTSUNNY   90  70  51 SW8       30.06F HX  95
6HR MIN TEMP:  75; 6HR MAX TEMP:  91;

STATESBORO     NOT AVBL
SYLVANIA       PTCLDY    91  71  52 W8        30.08F HX  98
CLAXTON        FAIR      90  72  55 SW8       30.07F HX  96
THOMSON        PTSUNNY   82  79  90 W6        30.13S HX  92
AUGUSTA-BUSH   PTSUNNY   91  69  48 S5        30.06F HX  96
6HR MIN TEMP:  72; 6HR MAX TEMP:  91; 6HR PCP: TRACE;

AUGUSTA-DANIEL MOSUNNY   88  67  49 SW7       30.09F HX  91
SWAINSBORO     FAIR      91  72  52 SW7       30.08F HX  98
VIDALIA          N/A     91  70  49 S7        30.08F HX  97
ALMA           MOSUNNY   90  68  48 SW5       30.07F HX  94
6HR MIN TEMP:  72; 6HR MAX TEMP:  92;

WAYCROSS       MOSUNNY   94  73  49 W5        30.07F HX 103
JESUP          NOT AVBL
BRUNSWICK      MOSUNNY   91  68  46 CALM      30.08F HX  95
SAINT SIMONS   SUNNY     88  72  58 SE13      30.09F HX  94
6HR MIN TEMP:  79; 6HR MAX TEMP:  90;


$$

SCZ027-028-034-036>038-045-046-048>050-GAZ119-141-101900-
...LAKE AND SUPPLEMENTAL COASTAL OBSERVATIONS...

STATION/POSITION TIME  TEMP    WIND        PRES    WAVE   SWELL
                       AIR SEA DIR/SP/G            HT/PER HT/PER/DIR
                 (UTC) (F)     (DEG/KT/KT) (MB)    (FT/S) (FT/S/D)
UPR LAKE MARION  NOT AVBL
WINYAH BAY       NOT AVBL
LAKE MURRAY      1700   84     200/  3/  4 1018.3S
ACE BASIN NERRS  NOT AVBL
FORT PULASKI     1800   86 79  170/  6/ 10   N/A
SAPELO ISLAND    NOT AVBL

$$

ANZ835-935-AMZ111-154-330-350-352-354-374-450-454-472-101900-
...C-MAN AND BUOY OBSERVATIONS...

STATION/POSITION TIME  TEMP    WIND        PRES    WAVE   SWELL
                       AIR SEA DIR/SP/G            HT/PER HT/PER/DIR
                 (UTC) (F)     (DEG/KT/KT) (MB)    (FT/S) (FT/S/D)
FOLLY BEACH CMAN 1700   84     220/ 13/ 16 1019.7F
BUOY 41004       1800   82 82  200/ 12/ 12 1018.8F   4/ 5   2/ 8
BUOY 41008       1800   82 85  180/ 10/ 12 1019.2F   2/ 8   2/100/ 8
5E ST. MARYS GA  1700      84                N/A     2/ 8
FRYING PAN BUOY  NOT AVBL
BUOY 41025       1800          VRB 14/ 16  1019.5F   4/ 6   2/130/ 8
CAPE LOOKOUT NC  1700   83     180/ 15/ 18 1019.3F
BUOY 41002       1701   81 81  210/ 12/ 16 1022.5    3/10   2/120/10
BUOY 41010       1800   80 83  250/  6/  8 1021.4F   3/10   2/ 90/10
BUOY 41012       NOT AVBL
ST AUGUSTINE FL  1800   81     170/  8/  9 1020.6F
CAPERS NEARSHORE 1700   83     200/ 14/ 17   N/A
FRIPP NEARSHORE  1700   84     230/ 12/ 16   N/A


$$


USA.gov is the U.S. government's official web portal to all federal, state and local government web resources and services.